TimeEST,TemperatureF,Dew PointF,Humidity,Sea Level PressureIn,VisibilityMPH,Wind Direction,Wind SpeedMPH,Gust SpeedMPH,PrecipitationIn,Events,Conditions,WindDirDegrees,DateUTC
12:54 AM,34.0,19.9,56,30.13,10.0,NNE,5.8,-,N/A,,Clear,20,2012-11-25 05:54:00
1:54 AM,28.9,19.9,69,30.13,10.0,WSW,3.5,-,N/A,,Clear,250,2012-11-25 06:54:00
2:54 AM,27.0,21.0,78,30.14,10.0,Calm,Calm,-,N/A,,Clear,0,2012-11-25 07:54:00
3:54 AM,26.1,21.0,81,30.14,10.0,Calm,Calm,-,N/A,,Clear,0,2012-11-25 08:54:00
4:54 AM,26.1,21.9,84,30.15,10.0,Calm,Calm,-,N/A,,Clear,0,2012-11-25 09:54:00
5:54 AM,25.0,21.0,85,30.17,10.0,Calm,Calm,-,N/A,,Clear,0,2012-11-25 10:54:00
6:54 AM,23.0,19.9,88,30.19,8.0,Calm,Calm,-,N/A,,Clear,0,2012-11-25 11:54:00
7:54 AM,28.0,24.1,85,30.19,8.0,Calm,Calm,-,N/A,,Clear,0,2012-11-25 12:54:00
8:54 AM,36.0,21.9,57,30.22,5.0,Calm,Calm,-,N/A,,Haze,0,2012-11-25 13:54:00
9:54 AM,39.9,19.0,43,30.22,10.0,Calm,Calm,-,N/A,,Clear,0,2012-11-25 14:54:00
10:54 AM,43.0,19.0,38,30.19,10.0,Calm,Calm,-,N/A,,Clear,0,2012-11-25 15:54:00
11:54 AM,46.0,19.9,35,30.15,10.0,WSW,4.6,-,N/A,,Clear,240,2012-11-25 16:54:00
12:54 PM,51.1,21.9,32,30.13,10.0,West,8.1,-,N/A,,Clear,260,2012-11-25 17:54:00
1:54 PM,52.0,21.0,30,30.11,10.0,West,6.9,-,N/A,,Clear,280,2012-11-25 18:54:00
2:54 PM,53.1,21.9,30,30.08,10.0,SW,12.7,-,N/A,,Clear,230,2012-11-25 19:54:00
3:54 PM,53.1,21.9,30,30.08,10.0,SW,10.4,-,N/A,,Clear,230,2012-11-25 20:54:00
4:54 PM,51.1,24.1,35,30.07,10.0,South,3.5,-,N/A,,Clear,190,2012-11-25 21:54:00
5:54 PM,42.1,28.9,60,30.09,7.0,Calm,Calm,-,N/A,,Clear,0,2012-11-25 22:54:00
6:54 PM,39.0,28.9,67,30.11,9.0,Calm,Calm,-,N/A,,Clear,0,2012-11-25 23:54:00
7:54 PM,36.0,28.9,76,30.12,10.0,Calm,Calm,-,N/A,,Clear,0,2012-11-26 00:54:00
8:54 PM,35.1,28.9,78,30.13,10.0,Calm,Calm,-,N/A,,Clear,0,2012-11-26 01:54:00
9:54 PM,33.1,28.0,82,30.13,10.0,Calm,Calm,-,N/A,,Clear,0,2012-11-26 02:54:00
10:54 PM,32.0,28.9,88,30.13,10.0,Calm,Calm,-,N/A,,Clear,0,2012-11-26 03:54:00
11:54 PM,32.0,28.9,88,30.13,10.0,Calm,Calm,-,N/A,,Clear,0,2012-11-26 04:54:00